When you browse on this site, cookies collect data to enhance your experience and personalize the content and advertising you see.
Visit our Privacy Policy to learn more. By continuing to use the site, you agree to this use of cookies and data.
  • In Romania
  • List of Countries
  • For 7 days
  • Water Temperature
  • Satellite Maps
  • Weather Map
  • Weather Widgets
  • user-avatar
    Login

    Hourly Weather Kostromka

    Today, 23 April, Tuesday

    Time Temperature Precipitation Wind Pressure Humidity
    00:00 +8°C° 0 mm 2 mps 756 mmHg 71%
    01:00 +8°C° 0 mm 2 mps 756 mmHg 72%
    02:00 +7°C° 0 mm 2 mps 756 mmHg 73%
    03:00 +7°C° 0 mm 2 mps 756 mmHg 73%
    04:00 +7°C° 0 mm 2 mps 756 mmHg 73%
    05:00 +7°C° 0 mm 2 mps 756 mmHg 73%
    06:00 +9°C° 0 mm 2 mps 756 mmHg 67%
    07:00 +12°C° 0 mm 2 mps 756 mmHg 60%
    08:00 +14°C° 0 mm 2 mps 756 mmHg 54%
    09:00 +16°C° 0 mm 3 mps 756 mmHg 48%
    10:00 +17°C° 0 mm 3 mps 756 mmHg 42%
    11:00 +19°C° 0 mm 3 mps 756 mmHg 37%
    12:00 +19°C° 0 mm 3 mps 756 mmHg 36%
    13:00 +19°C° 0 mm 3 mps 756 mmHg 35%
    14:00 +20°C° 0 mm 3 mps 756 mmHg 35%
    15:00 +19°C° 0 mm 3 mps 756 mmHg 38%
    16:00 +19°C° 0 mm 2 mps 755 mmHg 41%
    17:00 +19°C° 0 mm 2 mps 755 mmHg 44%
    18:00 +17°C° 0 mm 2 mps 755 mmHg 49%
    19:00 +15°C° 0 mm 2 mps 755 mmHg 55%
    20:00 +13°C° 0 mm 2 mps 755 mmHg 61%
    21:00 +12°C° 0 mm 2 mps 755 mmHg 63%
    22:00 +12°C° 0 mm 2 mps 756 mmHg 64%
    23:00 +10°C° 0 mm 2 mps 756 mmHg 66%

    Tomorrow, 24 April, Wednesday

    Time Temperature Precipitation Wind Pressure Humidity
    00:00 +10°C° 0 mm 2 mps 756 mmHg 68%
    01:00 +9°C° 0 mm 2 mps 756 mmHg 69%
    02:00 +9°C° 0 mm 2 mps 757 mmHg 70%
    03:00 +9°C° 0 mm 2 mps 757 mmHg 71%
    04:00 +8°C° 0 mm 2 mps 757 mmHg 72%
    05:00 +8°C° 0 mm 2 mps 757 mmHg 73%
    06:00 +10°C° 0 mm 2 mps 757 mmHg 66%
    07:00 +13°C° 0 mm 2 mps 757 mmHg 59%
    08:00 +16°C° 0 mm 2 mps 757 mmHg 52%
    09:00 +17°C° 0 mm 2 mps 757 mmHg 48%
    10:00 +18°C° 0 mm 3 mps 757 mmHg 43%
    11:00 +20°C° 0 mm 3 mps 757 mmHg 39%
    12:00 +20°C° 0 mm 3 mps 756 mmHg 38%
    13:00 +21°C° 0 mm 3 mps 756 mmHg 37%
    14:00 +21°C° 0 mm 3 mps 756 mmHg 36%
    15:00 +21°C° 0 mm 2 mps 756 mmHg 38%
    16:00 +21°C° 0 mm 2 mps 756 mmHg 41%
    17:00 +21°C° 0 mm 1 mps 755 mmHg 43%
    18:00 +19°C° 0 mm 1 mps 755 mmHg 48%
    19:00 +16°C° 0 mm 1 mps 755 mmHg 54%
    20:00 +14°C° 0 mm 1 mps 755 mmHg 60%
    21:00 +14°C° 0 mm 1 mps 755 mmHg 61%
    22:00 +13°C° 0 mm 1 mps 756 mmHg 63%
    23:00 +12°C° 0 mm 1 mps 756 mmHg 64%

    Day after tomorrow, 25 April, Thursday

    Time Temperature Precipitation Wind Pressure Humidity
    00:00 +12°C° 0 mm 1 mps 756 mmHg 66%
    01:00 +11°C° 0 mm 1 mps 756 mmHg 67%
    02:00 +10°C° 0 mm 0 mps 756 mmHg 68%
    03:00 +10°C° 0 mm 0 mps 756 mmHg 69%
    04:00 +10°C° 0 mm 0 mps 756 mmHg 69%
    05:00 +9°C° 0 mm 0 mps 756 mmHg 70%
    06:00 +12°C° 0 mm 0 mps 756 mmHg 63%
    07:00 +14°C° 0 mm 0 mps 756 mmHg 56%
    08:00 +16°C° 0 mm 0 mps 756 mmHg 49%
    09:00 +18°C° 0 mm 0 mps 756 mmHg 46%
    10:00 +19°C° 0 mm 0 mps 756 mmHg 42%
    11:00 +23°C° 0 mm 1 mps 755 mmHg 39%
    12:00 +23°C° 0 mm 1 mps 755 mmHg 39%
    13:00 +22°C° 0 mm 1 mps 755 mmHg 39%
    14:00 +22°C° 0 mm 1 mps 755 mmHg 38%
    15:00 +21°C° 0 mm 1 mps 754 mmHg 43%
    16:00 +20°C° 0 mm 1 mps 754 mmHg 47%
    17:00 +19°C° 0 mm 1 mps 754 mmHg 52%
    18:00 +18°C° 0 mm 1 mps 754 mmHg 55%
    19:00 +15°C° 0 mm 0 mps 754 mmHg 57%
    20:00 +14°C° 0 mm 0 mps 754 mmHg 60%
    21:00 +13°C° 0 mm 0 mps 754 mmHg 62%
    22:00 +13°C° 0 mm 0 mps 754 mmHg 63%
    23:00 +12°C° 0 mm 0 mps 754 mmHg 65%

    26 April, Friday

    Time Temperature Precipitation Wind Pressure Humidity
    00:00 +12°C° 0 mm 0 mps 754 mmHg 66%
    01:00 +11°C° 0 mm 0 mps 754 mmHg 67%
    02:00 +11°C° 0 mm 0 mps 754 mmHg 69%
    03:00 +11°C° 0 mm 0 mps 754 mmHg 70%
    04:00 +11°C° 0 mm 0 mps 754 mmHg 71%
    05:00 +11°C° 0 mm 0 mps 753 mmHg 72%
    06:00 +13°C° 0 mm 1 mps 753 mmHg 67%
    07:00 +15°C° 0 mm 1 mps 753 mmHg 61%
    08:00 +18°C° 0 mm 1 mps 753 mmHg 56%
    09:00 +19°C° 0 mm 1 mps 753 mmHg 52%
    10:00 +20°C° 0 mm 1 mps 753 mmHg 49%
    11:00 +20°C° 0 mm 2 mps 753 mmHg 45%
    12:00 +20°C° 0 mm 2 mps 753 mmHg 45%
    13:00 +20°C° 0 mm 2 mps 752 mmHg 45%
    14:00 +19°C° 0 mm 2 mps 752 mmHg 46%
    15:00 +20°C° 0 mm 1 mps 752 mmHg 47%
    16:00 +20°C° 0 mm 1 mps 752 mmHg 48%
    17:00 +20°C° 0 mm 1 mps 751 mmHg 49%
    18:00 +18°C° 0 mm 1 mps 751 mmHg 55%
    19:00 +16°C° 0 mm 1 mps 751 mmHg 61%
    20:00 +14°C° 0 mm 2 mps 751 mmHg 67%
    21:00 +13°C° 0 mm 2 mps 751 mmHg 71%
    22:00 +13°C° 0 mm 2 mps 751 mmHg 74%
    23:00 +12°C° 0 mm 2 mps 751 mmHg 78%

    27 April, Saturday

    Time Temperature Precipitation Wind Pressure Humidity
    00:00 +12°C° 0 mm 1 mps 750 mmHg 78%
    01:00 +12°C° 0 mm 1 mps 750 mmHg 78%
    02:00 +12°C° 0 mm 1 mps 750 mmHg 78%
    03:00 +12°C° 0.2 mm 1 mps 750 mmHg 80%
    04:00 +12°C° 0.2 mm 1 mps 749 mmHg 82%
    05:00 +12°C° 0.2 mm 1 mps 749 mmHg 84%
    06:00 +13°C° 0.3 mm 1 mps 749 mmHg 82%
    07:00 +13°C° 0.3 mm 1 mps 749 mmHg 80%
    08:00 +14°C° 0.3 mm 1 mps 749 mmHg 78%
    09:00 +15°C° 0 mm 1 mps 748 mmHg 72%
    10:00 +16°C° 0 mm 1 mps 748 mmHg 67%
    11:00 +18°C° 0 mm 2 mps 748 mmHg 61%
    12:00 +19°C° 0.1 mm 2 mps 747 mmHg 55%
    13:00 +20°C° 0.1 mm 2 mps 747 mmHg 49%
    14:00 +21°C° 0.1 mm 2 mps 747 mmHg 44%
    15:00 +21°C° 0.2 mm 2 mps 746 mmHg 46%
    16:00 +21°C° 0.2 mm 1 mps 746 mmHg 49%
    17:00 +21°C° 0.2 mm 1 mps 746 mmHg 52%
    18:00 +19°C° 0 mm 1 mps 746 mmHg 57%
    19:00 +16°C° 0 mm 1 mps 746 mmHg 63%
    20:00 +14°C° 0 mm 1 mps 746 mmHg 69%
    21:00 +14°C° 0 mm 1 mps 746 mmHg 72%
    22:00 +13°C° 0 mm 1 mps 746 mmHg 76%
    23:00 +12°C° 0 mm 1 mps 746 mmHg 79%

    28 April, Sunday

    Time Temperature Precipitation Wind Pressure Humidity
    00:00 +12°C° 0 mm 1 mps 746 mmHg 82%
    01:00 +11°C° 0 mm 1 mps 746 mmHg 84%
    02:00 +11°C° 0 mm 1 mps 746 mmHg 87%
    03:00 +11°C° 0 mm 1 mps 746 mmHg 88%
    04:00 +10°C° 0 mm 0 mps 746 mmHg 89%
    05:00 +10°C° 0 mm 0 mps 746 mmHg 90%
    06:00 +12°C° 0 mm 0 mps 746 mmHg 81%
    07:00 +15°C° 0 mm 1 mps 746 mmHg 73%
    08:00 +18°C° 0 mm 1 mps 746 mmHg 65%
    09:00 +19°C° 0 mm 1 mps 746 mmHg 59%
    10:00 +21°C° 0 mm 1 mps 746 mmHg 54%
    11:00 +21°C° 0 mm 2 mps 746 mmHg 48%
    12:00 +21°C° 0.1 mm 2 mps 746 mmHg 48%
    13:00 +21°C° 0.1 mm 2 mps 745 mmHg 47%
    14:00 +23°C° 0.1 mm 2 mps 745 mmHg 46%
    15:00 +21°C° 0.5 mm 2 mps 745 mmHg 52%
    16:00 +20°C° 0.5 mm 3 mps 745 mmHg 58%
    17:00 +19°C° 0.5 mm 3 mps 745 mmHg 64%
    18:00 +17°C° 0 mm 3 mps 746 mmHg 72%
    19:00 +16°C° 0 mm 3 mps 746 mmHg 80%
    20:00 +14°C° 0 mm 2 mps 746 mmHg 87%
    21:00 +13°C° 0 mm 3 mps 746 mmHg 89%
    22:00 +12°C° 0 mm 3 mps 746 mmHg 90%
    23:00 +11°C° 0 mm 3 mps 747 mmHg 91%
    Show more